Hourly Data Report for December 07, 2021

CAPE RACE (AUT)
NEWFOUNDLAND
Current Station Operator: ECCC - MSC

46°39'36.000" N
53°04'35.000" W
26.50 m
8401000
71800
WRA

Download Data

Hourly Data (December 2021)
Hourly Data Report for December 7, 2021
TIME
LST
Temp Definition
°C
Dew Point Definition
°C
Rel Hum Definition
%
Precip. Amount Definition
mm

Wind Dir Definition
10's deg

Wind Spd Definition
km/h
Visibility Definition
km
Stn Press Definition
kPa
Hmdx Definition


Wind Chill Definition


Weather Definition


00:30 4.6 2.2 85 0.0 17 43   102.31     LegendNANA
01:30 4.9 2.7 86 0.0 17 41   102.11     LegendNANA
02:30 5.2 3.8 90 0.0 17 45   101.95     LegendNANA
03:30 5.7 4.5 92 0.0 17 52   101.72     LegendNANA
04:30 6.1 5.3 94 0.0 18 58   101.53     LegendNANA
05:30 6.4 5.8 96 0.0 18 59   101.39     LegendNANA
06:30 6.8 6.2 96 0.0 18 55   101.31     LegendNANA
07:30 7.5 7.0 97 0.0 18 59   101.15     LegendNANA
08:30 7.5 7.0 97 0.0 18 59   101.07     LegendNANA
09:30 8.1 7.7 97 0.0 19 56   100.90     LegendNANA
10:30 8.1 7.7 97 0.0 19 59   100.73     LegendNANA
11:30 8.6 8.3 98 0.0 20 51   100.56     LegendNANA
12:30 9.0 8.8 98 0.0 19 51   100.44     LegendNANA
13:30 9.5 9.3 98 0.0 19 49   100.32     LegendNANA
14:30 9.7 9.5 99 0.0 19 56   100.13     LegendNANA
15:30 9.5 9.3 99 0.5 21 55   100.14     LegendNANA
16:30 10.4 10.3 99 3.8 22 59   100.18     LegendNANA
17:30 7.7 7.5 99 2.0 27 41   100.36     LegendNANA
18:30 6.5 5.5 93 0.0 25 42   100.45     LegendNANA
19:30 5.5 3.9 89 0.2 26 43   100.51     LegendNANA
20:30 4.4 1.5 81 0.0 26 36   100.66     LegendNANA
21:30 4.1 0.5 78 0.0 25 36   100.70     LegendNANA
22:30 3.9 0.5 78 0.0 26 31   100.70     LegendNANA
23:30 3.9 -0.2 75 0.0 25 32   100.74     LegendNANA

Notes on Data Quality.

Legend

  • E = Estimated
  • M = Missing
  • NA = Not Available*
  • [empty] = Indicates an unobserved value
Date modified: